THORAD DELTA 1 R/B(2), 9330

Orbit data source: Space-Track

THORAD DELTA 1 R/B(2), 9330 is space debris in HEO originally from a launch on Thu, 19 Dec 1974 UTC launched from the Air Force Eastern Test Range (AFETR). Debris objects in space refer to the collection of defunct objects orbiting the Earth. Examples of debris include non-operational satellites, rocket bodies, and fragments generated from explosions, collisions, or faulty payload assembly.

Loading next visibility...
Identifier
9330, 1974-101G
Orbit
HEO
Country
Flag of USUS
Related business
Manufacturer
Thiokol/TE
Mission
Spacecraft
Bus & Motor
STAR 37, Unknown motor
Mass
~83 kg wet, 83 kg dry
Launch date (UTC)
1974-12-19 (51 years ago)
Launch vehicle
Unknown
Launch site
Air Force Eastern Test Range (AFETR)
Object type
Payload
Rocket body
Debris
Shape & HBR
Unknown
Radar Cross Section
Large (>1 m²)

Expand to show TLE details & history
Last TLE update: 11 hours ago

TLE from 11 hours ago
0 THORAD DELTA 1 R/B(2)
1  9330U 74101G   26035.87694394  .00000154  00000-0  80758-3 0  9995
2  9330  13.1633   8.0816 7191522 175.2488 200.3889  2.31159423415986
Epoch: 2026-02-04T21:02Z
TLE epoch observation values (Epoch: 2026-02-04T21:02:47.956Z)
Latitude
-0.00001°
Longitude
-82.63893°
Altitude
34,774.703 km
Speed
1.696 km/s
True Right ascension
00h 32m 23s
True Declination
0° 00' 00"
Sunlit
Object was in daylight at epoch
Visualization orbit readout
Latitude
Unknown
Longitude
Unknown
Altitude
Unknown
Speed
Unknown
Apparent Right ascension
Unknown
Apparent Declination
Unknown
Sunlit
N/A
Visualization observer readout
Local Sidereal Time
09:52:16
Azimuth
Unknown
Elevation
Unknown
Doppler factor
Unknown
Orbital elements
Apogee altitude
35,168.139 km
Perigee altitude
409.034 km
Semi-major axis
24,166.724 km
Eccentricity
0.71915
Inclination
13.1633°
RAAN
8.0816°
Arg. of periapsis
175.2488°
True anomaly
184.82247°
Mean anomaly
200.3889°
Eccentric anomaly
191.89553°
Mean motion
0.57772 °/min
Orbital period
623.14 mins
BSTAR
0.00080758
Loading maneuver chart data...
Computing Atmospheric mass density...
Loading historical data...
Loading historical data...
Loading historical data...
Loading historical data...
Loading historical data...
Loading historical data...
Loading historical data...

Documentation

Showing up to 5 results
|